Date_Time,Julian_Date,Latitude,Longitude,Instrument_Depth,U,V,Speed,Direction
(yyyy-mm-dd hh:mn:ss UTC),(JD),(+ deg. North),(+ deg. East),(m),(cm/s),(cm/s),(cm/s),(deg True)
1978-02-27 00:09:00 UTC,2443566.506250,29.1900,-87.6367,0985,0.38,-0.29,0.4780,127.3493
1978-02-27 01:09:00 UTC,2443566.547917,29.1900,-87.6367,0985,0.39,-0.29,0.4860,126.6341
1978-02-27 02:09:00 UTC,2443566.589583,29.1900,-87.6367,0985,0.47,-0.17,0.4998,109.8852
1978-02-27 03:09:00 UTC,2443566.631250,29.1900,-87.6367,0985,0.67,-0.02,0.6703,91.7098
1978-02-27 04:09:00 UTC,2443566.672917,29.1900,-87.6367,0985,0.75,0.13,0.7612,80.1664
1978-02-27 05:09:00 UTC,2443566.714583,29.1900,-87.6367,0985,0.72,0.35,0.8006,64.0751
1978-02-27 06:09:00 UTC,2443566.756250,29.1900,-87.6367,0985,0.72,0.67,0.9835,47.0601
1978-02-27 07:09:00 UTC,2443566.797917,29.1900,-87.6367,0985,0.71,0.92,1.1621,37.6588
1978-02-27 08:09:00 UTC,2443566.839583,29.1900,-87.6367,0985,0.80,0.96,1.2496,39.8056
1978-02-27 09:09:00 UTC,2443566.881250,29.1900,-87.6367,0985,0.89,0.95,1.3018,43.1323
1978-02-27 10:09:00 UTC,2443566.922917,29.1900,-87.6367,0985,1.13,0.83,1.4021,53.7022
1978-02-27 11:09:00 UTC,2443566.964583,29.1900,-87.6367,0985,1.45,0.49,1.5306,71.3283
1978-02-27 12:09:00 UTC,2443567.006250,29.1900,-87.6367,0985,1.41,0.27,1.4356,79.1597
1978-02-27 13:09:00 UTC,2443567.047917,29.1900,-87.6367,0985,1.08,0.15,1.0904,82.0928
1978-02-27 14:09:00 UTC,2443567.089583,29.1900,-87.6367,0985,0.81,0.05,0.8115,86.4677
1978-02-27 15:09:00 UTC,2443567.131250,29.1900,-87.6367,0985,0.73,0.04,0.7311,86.8636
1978-02-27 16:09:00 UTC,2443567.172917,29.1900,-87.6367,0985,0.70,0.06,0.7026,85.1009
1978-02-27 17:09:00 UTC,2443567.214583,29.1900,-87.6367,0985,0.61,0.07,0.6140,83.4537
1978-02-27 18:09:00 UTC,2443567.256250,29.1900,-87.6367,0985,0.51,0.14,0.5289,74.6499
1978-02-27 19:09:00 UTC,2443567.297917,29.1900,-87.6367,0985,0.45,0.12,0.4657,75.0686
1978-02-27 20:09:00 UTC,2443567.339583,29.1900,-87.6367,0985,0.40,0.08,0.4079,78.6901
1978-02-27 21:09:00 UTC,2443567.381250,29.1900,-87.6367,0985,0.36,0.12,0.3795,71.5650
1978-02-27 22:09:00 UTC,2443567.422917,29.1900,-87.6367,0985,0.33,0.33,0.4667,45.0000
1978-02-27 23:09:00 UTC,2443567.464583,29.1900,-87.6367,0985,0.40,0.46,0.6096,41.0091
1978-02-28 00:09:00 UTC,2443567.506250,29.1900,-87.6367,0985,0.45,0.34,0.5640,52.9269
1978-02-28 01:09:00 UTC,2443567.547917,29.1900,-87.6367,0985,0.45,0.26,0.5197,59.9816
1978-02-28 02:09:00 UTC,2443567.589583,29.1900,-87.6367,0985,0.52,0.17,0.5471,71.8962
1978-02-28 03:09:00 UTC,2443567.631250,29.1900,-87.6367,0985,0.37,-0.09,0.3808,103.6713
1978-02-28 04:09:00 UTC,2443567.672917,29.1900,-87.6367,0985,0.16,-0.28,0.3225,150.2551
1978-02-28 05:09:00 UTC,2443567.714583,29.1900,-87.6367,0985,0.18,-0.10,0.2059,119.0546
1978-02-28 06:09:00 UTC,2443567.756250,29.1900,-87.6367,0985,0.34,0.22,0.4050,57.0948
1978-02-28 07:09:00 UTC,2443567.797917,29.1900,-87.6367,0985,0.46,0.25,0.5235,61.4769
1978-02-28 08:09:00 UTC,2443567.839583,29.1900,-87.6367,0985,0.33,-0.07,0.3373,101.9761
1978-02-28 09:09:00 UTC,2443567.881250,29.1900,-87.6367,0985,0.08,-0.06,0.1000,126.8699
1978-02-28 10:09:00 UTC,2443567.922917,29.1900,-87.6367,0985,0.09,0.13,0.1581,34.6952
1978-02-28 11:09:00 UTC,2443567.964583,29.1900,-87.6367,0985,0.31,0.00,0.3100,90.0000
1978-02-28 12:09:00 UTC,2443568.006250,29.1900,-87.6367,0985,0.34,-0.15,0.3716,113.8059
1978-02-28 13:09:00 UTC,2443568.047917,29.1900,-87.6367,0985,0.27,-0.20,0.3360,126.5289
1978-02-28 14:09:00 UTC,2443568.089583,29.1900,-87.6367,0985,0.28,-0.25,0.3754,131.7603
1978-02-28 15:09:00 UTC,2443568.131250,29.1900,-87.6367,0985,0.26,-0.34,0.4280,142.5946
1978-02-28 16:09:00 UTC,2443568.172917,29.1900,-87.6367,0985,0.13,-0.43,0.4492,163.1786
1978-02-28 17:09:00 UTC,2443568.214583,29.1900,-87.6367,0985,0.06,-0.33,0.3354,169.6951
1978-02-28 18:09:00 UTC,2443568.256250,29.1900,-87.6367,0985,0.11,-0.18,0.2110,148.5704
1978-02-28 19:09:00 UTC,2443568.297917,29.1900,-87.6367,0985,0.10,-0.18,0.2059,150.9454
1978-02-28 20:09:00 UTC,2443568.339583,29.1900,-87.6367,0985,0.10,-0.16,0.1887,147.9946
1978-02-28 21:09:00 UTC,2443568.381250,29.1900,-87.6367,0985,0.13,-0.14,0.1910,137.1211
1978-02-28 22:09:00 UTC,2443568.422917,29.1900,-87.6367,0985,0.10,-0.08,0.1281,128.6598
1978-02-28 23:09:00 UTC,2443568.464583,29.1900,-87.6367,0985,0.16,-0.03,0.1628,100.6197
1978-03-01 00:09:00 UTC,2443568.506250,29.1900,-87.6367,0985,0.14,-0.08,0.1612,119.7449
1978-03-01 01:09:00 UTC,2443568.547917,29.1900,-87.6367,0985,0.17,-0.06,0.1803,109.4400
1978-03-01 02:09:00 UTC,2443568.589583,29.1900,-87.6367,0985,0.19,-0.07,0.2025,110.2249
1978-03-01 03:09:00 UTC,2443568.631250,29.1900,-87.6367,0985,0.18,-0.02,0.1811,96.3402
1978-03-01 04:09:00 UTC,2443568.672917,29.1900,-87.6367,0985,0.25,0.00,0.2500,90.0000
1978-03-01 05:09:00 UTC,2443568.714583,29.1900,-87.6367,0985,0.25,-0.04,0.2532,99.0903
1978-03-01 06:09:00 UTC,2443568.756250,29.1900,-87.6367,0985,0.15,0.18,0.2343,39.8056
1978-03-01 07:09:00 UTC,2443568.797917,29.1900,-87.6367,0985,0.16,0.34,0.3758,25.2011
1978-03-01 08:09:00 UTC,2443568.839583,29.1900,-87.6367,0985,0.19,0.22,0.2907,40.8151
1978-03-01 09:09:00 UTC,2443568.881250,29.1900,-87.6367,0985,0.19,0.12,0.2247,57.7243
1978-03-01 10:09:00 UTC,2443568.922917,29.1900,-87.6367,0985,0.20,0.02,0.2010,84.2894
1978-03-01 11:09:00 UTC,2443568.964583,29.1900,-87.6367,0985,0.19,-0.06,0.1992,107.5256
1978-03-01 12:09:00 UTC,2443569.006250,29.1900,-87.6367,0985,0.07,-0.13,0.1476,151.6992
1978-03-01 13:09:00 UTC,2443569.047917,29.1900,-87.6367,0985,-0.02,-0.33,0.3306,183.4682
1978-03-01 14:09:00 UTC,2443569.089583,29.1900,-87.6367,0985,0.01,-0.56,0.5601,178.9770
1978-03-01 15:09:00 UTC,2443569.131250,29.1900,-87.6367,0985,-0.05,-0.57,0.5722,185.0131
1978-03-01 16:09:00 UTC,2443569.172917,29.1900,-87.6367,0985,-0.24,-0.37,0.4410,212.9694
1978-03-01 17:09:00 UTC,2443569.214583,29.1900,-87.6367,0985,-0.39,-0.15,0.4179,248.9625
1978-03-01 18:09:00 UTC,2443569.256250,29.1900,-87.6367,0985,-0.45,-0.14,0.4713,252.7185
1978-03-01 19:09:00 UTC,2443569.297917,29.1900,-87.6367,0985,-0.61,-0.14,0.6259,257.0740
1978-03-01 20:09:00 UTC,2443569.339583,29.1900,-87.6367,0985,-0.77,0.07,0.7732,275.1944
1978-03-01 21:09:00 UTC,2443569.381250,29.1900,-87.6367,0985,-0.67,0.23,0.7084,288.9465
1978-03-01 22:09:00 UTC,2443569.422917,29.1900,-87.6367,0985,-0.52,0.13,0.5360,284.0363
1978-03-01 23:09:00 UTC,2443569.464583,29.1900,-87.6367,0985,-0.44,0.09,0.4491,281.5601
1978-03-02 00:09:00 UTC,2443569.506250,29.1900,-87.6367,0985,-0.35,0.13,0.3734,290.3764
1978-03-02 01:09:00 UTC,2443569.547917,29.1900,-87.6367,0985,-0.03,-0.09,0.0949,198.4350
1978-03-02 02:09:00 UTC,2443569.589583,29.1900,-87.6367,0985,0.14,-0.27,0.3041,152.5924
1978-03-02 03:09:00 UTC,2443569.631250,29.1900,-87.6367,0985,-0.05,-0.26,0.2648,190.8855
1978-03-02 04:09:00 UTC,2443569.672917,29.1900,-87.6367,0985,0.06,-0.23,0.2377,165.3791
1978-03-02 05:09:00 UTC,2443569.714583,29.1900,-87.6367,0985,0.28,-0.23,0.3624,129.4007
1978-03-02 06:09:00 UTC,2443569.756250,29.1900,-87.6367,0985,0.26,0.09,0.2751,70.9065
1978-03-02 07:09:00 UTC,2443569.797917,29.1900,-87.6367,0985,0.21,0.45,0.4966,25.0169
1978-03-02 08:09:00 UTC,2443569.839583,29.1900,-87.6367,0985,0.28,0.32,0.4252,41.1859
1978-03-02 09:09:00 UTC,2443569.881250,29.1900,-87.6367,0985,0.33,0.15,0.3625,65.5560
1978-03-02 10:09:00 UTC,2443569.922917,29.1900,-87.6367,0985,0.38,0.24,0.4494,57.7243
1978-03-02 11:09:00 UTC,2443569.964583,29.1900,-87.6367,0985,0.53,0.23,0.5778,66.5410
1978-03-02 12:09:00 UTC,2443570.006250,29.1900,-87.6367,0985,0.63,0.11,0.6395,80.0958
1978-03-02 13:09:00 UTC,2443570.047917,29.1900,-87.6367,0985,0.62,0.22,0.6579,70.4633
1978-03-02 14:09:00 UTC,2443570.089583,29.1900,-87.6367,0985,0.65,0.32,0.7245,63.7886
1978-03-02 15:09:00 UTC,2443570.131250,29.1900,-87.6367,0985,0.63,0.26,0.6815,67.5741
1978-03-02 16:09:00 UTC,2443570.172917,29.1900,-87.6367,0985,0.54,0.17,0.5661,72.5252
1978-03-02 17:09:00 UTC,2443570.214583,29.1900,-87.6367,0985,0.55,0.17,0.5757,72.8241
1978-03-02 18:09:00 UTC,2443570.256250,29.1900,-87.6367,0985,0.55,0.26,0.6084,64.6986
1978-03-02 19:09:00 UTC,2443570.297917,29.1900,-87.6367,0985,0.48,0.27,0.5507,60.6422
1978-03-02 20:09:00 UTC,2443570.339583,29.1900,-87.6367,0985,0.50,0.28,0.5731,60.7512
1978-03-02 21:09:00 UTC,2443570.381250,29.1900,-87.6367,0985,0.53,0.38,0.6522,54.3602
1978-03-02 22:09:00 UTC,2443570.422917,29.1900,-87.6367,0985,0.55,0.51,0.7501,47.1611
1978-03-02 23:09:00 UTC,2443570.464583,29.1900,-87.6367,0985,0.76,0.48,0.8989,57.7243
1978-03-03 00:09:00 UTC,2443570.506250,29.1900,-87.6367,0985,0.92,0.35,0.9843,69.1714
1978-03-03 01:09:00 UTC,2443570.547917,29.1900,-87.6367,0985,0.91,0.36,0.9786,68.4160
1978-03-03 02:09:00 UTC,2443570.589583,29.1900,-87.6367,0985,0.89,0.45,0.9973,63.1780
1978-03-03 03:09:00 UTC,2443570.631250,29.1900,-87.6367,0985,0.86,0.48,0.9849,60.8324
1978-03-03 04:09:00 UTC,2443570.672917,29.1900,-87.6367,0985,0.90,0.56,1.0600,58.1092
1978-03-03 05:09:00 UTC,2443570.714583,29.1900,-87.6367,0985,0.98,0.62,1.1597,57.6804
1978-03-03 06:09:00 UTC,2443570.756250,29.1900,-87.6367,0985,1.06,0.72,1.2814,55.8139
1978-03-03 07:09:00 UTC,2443570.797917,29.1900,-87.6367,0985,1.15,0.83,1.4182,54.1805
1978-03-03 08:09:00 UTC,2443570.839583,29.1900,-87.6367,0985,1.31,0.84,1.5562,57.3311
1978-03-03 09:09:00 UTC,2443570.881250,29.1900,-87.6367,0985,1.50,0.76,1.6815,63.1302
1978-03-03 10:09:00 UTC,2443570.922917,29.1900,-87.6367,0985,1.32,0.50,1.4115,69.2539
1978-03-03 11:09:00 UTC,2443570.964583,29.1900,-87.6367,0985,1.14,0.27,1.1715,76.6755
1978-03-03 12:09:00 UTC,2443571.006250,29.1900,-87.6367,0985,1.07,0.05,1.0712,87.3246
1978-03-03 13:09:00 UTC,2443571.047917,29.1900,-87.6367,0985,0.88,-0.03,0.8805,91.9525
1978-03-03 14:09:00 UTC,2443571.089583,29.1900,-87.6367,0985,0.72,0.03,0.7206,87.6141
1978-03-03 15:09:00 UTC,2443571.131250,29.1900,-87.6367,0985,0.64,0.16,0.6597,75.9638
1978-03-03 16:09:00 UTC,2443571.172917,29.1900,-87.6367,0985,0.57,0.32,0.6537,60.6900
1978-03-03 17:09:00 UTC,2443571.214583,29.1900,-87.6367,0985,0.57,0.42,0.7080,53.6156
1978-03-03 18:09:00 UTC,2443571.256250,29.1900,-87.6367,0985,0.71,0.41,0.8199,59.9951
1978-03-03 19:09:00 UTC,2443571.297917,29.1900,-87.6367,0985,0.83,0.28,0.8760,71.3582
1978-03-03 20:09:00 UTC,2443571.339583,29.1900,-87.6367,0985,0.83,0.21,0.8562,75.8014
1978-03-03 21:09:00 UTC,2443571.381250,29.1900,-87.6367,0985,0.83,0.18,0.8493,77.7639
1978-03-03 22:09:00 UTC,2443571.422917,29.1900,-87.6367,0985,0.78,0.11,0.7877,81.9728
1978-03-03 23:09:00 UTC,2443571.464583,29.1900,-87.6367,0985,0.80,0.17,0.8179,78.0031
1978-03-04 00:09:00 UTC,2443571.506250,29.1900,-87.6367,0985,0.82,0.33,0.8839,68.0782
1978-03-04 01:09:00 UTC,2443571.547917,29.1900,-87.6367,0985,0.89,0.38,0.9677,66.8791
1978-03-04 02:09:00 UTC,2443571.589583,29.1900,-87.6367,0985,0.97,0.45,1.0693,65.1126
1978-03-04 03:09:00 UTC,2443571.631250,29.1900,-87.6367,0985,1.17,0.66,1.3433,60.5725
1978-03-04 04:09:00 UTC,2443571.672917,29.1900,-87.6367,0985,1.14,0.70,1.3378,58.4486
1978-03-04 05:09:00 UTC,2443571.714583,29.1900,-87.6367,0985,1.18,0.72,1.3823,58.6097
1978-03-04 06:09:00 UTC,2443571.756250,29.1900,-87.6367,0985,1.46,0.74,1.6368,63.1219
1978-03-04 07:09:00 UTC,2443571.797917,29.1900,-87.6367,0985,1.57,0.48,1.6417,72.9999
1978-03-04 08:09:00 UTC,2443571.839583,29.1900,-87.6367,0985,1.72,0.19,1.7305,83.6964
1978-03-04 09:09:00 UTC,2443571.881250,29.1900,-87.6367,0985,1.67,0.10,1.6730,86.5732
1978-03-04 10:09:00 UTC,2443571.922917,29.1900,-87.6367,0985,1.43,0.26,1.4534,79.6951
1978-03-04 11:09:00 UTC,2443571.964583,29.1900,-87.6367,0985,1.34,0.50,1.4302,69.5377
1978-03-04 12:09:00 UTC,2443572.006250,29.1900,-87.6367,0985,1.52,0.63,1.6454,67.4873
1978-03-04 13:09:00 UTC,2443572.047917,29.1900,-87.6367,0985,1.45,0.43,1.5124,73.4822
1978-03-04 14:09:00 UTC,2443572.089583,29.1900,-87.6367,0985,1.05,0.24,1.0771,77.1250
1978-03-04 15:09:00 UTC,2443572.131250,29.1900,-87.6367,0985,1.13,0.34,1.1800,73.2542
1978-03-04 16:09:00 UTC,2443572.172917,29.1900,-87.6367,0985,1.33,0.52,1.4280,68.6456
1978-03-04 17:09:00 UTC,2443572.214583,29.1900,-87.6367,0985,1.43,0.68,1.5834,64.5678
1978-03-04 18:09:00 UTC,2443572.256250,29.1900,-87.6367,0985,1.45,0.65,1.5890,65.8545
1978-03-04 19:09:00 UTC,2443572.297917,29.1900,-87.6367,0985,1.29,0.62,1.4313,64.3301
1978-03-04 20:09:00 UTC,2443572.339583,29.1900,-87.6367,0985,1.19,0.57,1.3195,64.4060
1978-03-04 21:09:00 UTC,2443572.381250,29.1900,-87.6367,0985,1.08,0.42,1.1588,68.7495
1978-03-04 22:09:00 UTC,2443572.422917,29.1900,-87.6367,0985,1.08,0.36,1.1384,71.5650
1978-03-04 23:09:00 UTC,2443572.464583,29.1900,-87.6367,0985,1.26,0.37,1.3132,73.6351
1978-03-05 00:09:00 UTC,2443572.506250,29.1900,-87.6367,0985,1.44,0.29,1.4689,78.6136
1978-03-05 01:09:00 UTC,2443572.547917,29.1900,-87.6367,0985,1.29,0.17,1.3012,82.4927
1978-03-05 02:09:00 UTC,2443572.589583,29.1900,-87.6367,0985,1.03,0.05,1.0312,87.2208
1978-03-05 03:09:00 UTC,2443572.631250,29.1900,-87.6367,0985,0.93,0.03,0.9305,88.1524
1978-03-05 04:09:00 UTC,2443572.672917,29.1900,-87.6367,0985,0.82,0.19,0.8417,76.9544
1978-03-05 05:09:00 UTC,2443572.714583,29.1900,-87.6367,0985,0.78,0.41,0.8812,62.2717
1978-03-05 06:09:00 UTC,2443572.756250,29.1900,-87.6367,0985,0.83,0.49,0.9638,59.4440
1978-03-05 07:09:00 UTC,2443572.797917,29.1900,-87.6367,0985,0.85,0.41,0.9437,64.2495
1978-03-05 08:09:00 UTC,2443572.839583,29.1900,-87.6367,0985,0.83,0.37,0.9087,65.9735
1978-03-05 09:09:00 UTC,2443572.881250,29.1900,-87.6367,0985,0.81,0.55,0.9791,55.8230
1978-03-05 10:09:00 UTC,2443572.922917,29.1900,-87.6367,0985,0.92,0.59,1.0929,57.3278
1978-03-05 11:09:00 UTC,2443572.964583,29.1900,-87.6367,0985,1.04,0.60,1.2007,60.0184
1978-03-05 12:09:00 UTC,2443573.006250,29.1900,-87.6367,0985,1.20,0.80,1.4422,56.3099
1978-03-05 13:09:00 UTC,2443573.047917,29.1900,-87.6367,0985,1.15,0.63,1.3113,61.2849
1978-03-05 14:09:00 UTC,2443573.089583,29.1900,-87.6367,0985,1.02,0.25,1.0502,76.2284
1978-03-05 15:09:00 UTC,2443573.131250,29.1900,-87.6367,0985,1.02,0.12,1.0270,83.2902
1978-03-05 16:09:00 UTC,2443573.172917,29.1900,-87.6367,0985,0.85,0.11,0.8571,82.6262
1978-03-05 17:09:00 UTC,2443573.214583,29.1900,-87.6367,0985,0.59,0.17,0.6140,73.9264
1978-03-05 18:09:00 UTC,2443573.256250,29.1900,-87.6367,0985,0.56,0.23,0.6054,67.6713
1978-03-05 19:09:00 UTC,2443573.297917,29.1900,-87.6367,0985,0.64,0.19,0.6676,73.4652
1978-03-05 20:09:00 UTC,2443573.339583,29.1900,-87.6367,0985,0.70,0.08,0.7046,83.4802
1978-03-05 21:09:00 UTC,2443573.381250,29.1900,-87.6367,0985,0.64,-0.17,0.6622,104.8757
1978-03-05 22:09:00 UTC,2443573.422917,29.1900,-87.6367,0985,0.48,-0.31,0.5714,122.8557
1978-03-05 23:09:00 UTC,2443573.464583,29.1900,-87.6367,0985,0.29,-0.41,0.5022,144.7276
1978-03-06 00:09:00 UTC,2443573.506250,29.1900,-87.6367,0985,0.22,-0.49,0.5371,155.8209
1978-03-06 01:09:00 UTC,2443573.547917,29.1900,-87.6367,0985,0.14,-0.46,0.4808,163.0725
1978-03-06 02:09:00 UTC,2443573.589583,29.1900,-87.6367,0985,0.04,-0.34,0.3423,173.2902
1978-03-06 03:09:00 UTC,2443573.631250,29.1900,-87.6367,0985,0.09,-0.22,0.2377,157.7510
1978-03-06 04:09:00 UTC,2443573.672917,29.1900,-87.6367,0985,0.15,-0.17,0.2267,138.5763
1978-03-06 05:09:00 UTC,2443573.714583,29.1900,-87.6367,0985,0.15,-0.13,0.1985,130.9144
1978-03-06 06:09:00 UTC,2443573.756250,29.1900,-87.6367,0985,0.24,0.06,0.2474,75.9638
1978-03-06 07:09:00 UTC,2443573.797917,29.1900,-87.6367,0985,0.38,0.40,0.5517,43.5312
1978-03-06 08:09:00 UTC,2443573.839583,29.1900,-87.6367,0985,0.55,0.53,0.7638,46.0609
1978-03-06 09:09:00 UTC,2443573.881250,29.1900,-87.6367,0985,0.84,0.48,0.9675,60.2551
1978-03-06 10:09:00 UTC,2443573.922917,29.1900,-87.6367,0985,1.08,0.39,1.1483,70.1448
1978-03-06 11:09:00 UTC,2443573.964583,29.1900,-87.6367,0985,1.18,0.20,1.1968,80.3803
1978-03-06 12:09:00 UTC,2443574.006250,29.1900,-87.6367,0985,1.10,-0.02,1.1002,91.0416
1978-03-06 13:09:00 UTC,2443574.047917,29.1900,-87.6367,0985,0.97,-0.11,0.9762,96.4698
1978-03-06 14:09:00 UTC,2443574.089583,29.1900,-87.6367,0985,0.89,-0.20,0.9122,102.6651
1978-03-06 15:09:00 UTC,2443574.131250,29.1900,-87.6367,0985,0.69,-0.30,0.7524,113.4986
1978-03-06 16:09:00 UTC,2443574.172917,29.1900,-87.6367,0985,0.41,-0.31,0.5140,127.0928
1978-03-06 17:09:00 UTC,2443574.214583,29.1900,-87.6367,0985,0.37,-0.31,0.4827,129.9575
1978-03-06 18:09:00 UTC,2443574.256250,29.1900,-87.6367,0985,0.47,-0.28,0.5471,120.7841
1978-03-06 19:09:00 UTC,2443574.297917,29.1900,-87.6367,0985,0.48,-0.11,0.4924,102.9074
1978-03-06 20:09:00 UTC,2443574.339583,29.1900,-87.6367,0985,0.54,-0.04,0.5415,94.2364
1978-03-06 21:09:00 UTC,2443574.381250,29.1900,-87.6367,0985,0.66,-0.09,0.6661,97.7652
1978-03-06 22:09:00 UTC,2443574.422917,29.1900,-87.6367,0985,0.69,-0.07,0.6935,95.7928
1978-03-06 23:09:00 UTC,2443574.464583,29.1900,-87.6367,0985,0.55,-0.01,0.5501,91.0416
1978-03-07 00:09:00 UTC,2443574.506250,29.1900,-87.6367,0985,0.43,0.00,0.4300,90.0000
1978-03-07 01:09:00 UTC,2443574.547917,29.1900,-87.6367,0985,0.29,-0.05,0.2943,99.7824
1978-03-07 02:09:00 UTC,2443574.589583,29.1900,-87.6367,0985,0.22,-0.09,0.2377,112.2490
1978-03-07 03:09:00 UTC,2443574.631250,29.1900,-87.6367,0985,0.20,-0.15,0.2500,126.8699
1978-03-07 04:09:00 UTC,2443574.672917,29.1900,-87.6367,0985,0.09,-0.23,0.2470,158.6294
1978-03-07 05:09:00 UTC,2443574.714583,29.1900,-87.6367,0985,-0.03,-0.26,0.2617,186.5820
1978-03-07 06:09:00 UTC,2443574.756250,29.1900,-87.6367,0985,0.01,-0.23,0.2302,177.5104
1978-03-07 07:09:00 UTC,2443574.797917,29.1900,-87.6367,0985,0.09,-0.27,0.2846,161.5650
1978-03-07 08:09:00 UTC,2443574.839583,29.1900,-87.6367,0985,-0.12,-0.13,0.1769,222.7094
1978-03-07 09:09:00 UTC,2443574.881250,29.1900,-87.6367,0985,-0.11,0.23,0.2550,334.4400
1978-03-07 10:09:00 UTC,2443574.922917,29.1900,-87.6367,0985,-0.06,0.27,0.2766,347.4712
1978-03-07 11:09:00 UTC,2443574.964583,29.1900,-87.6367,0985,-0.18,0.19,0.2617,316.5482
1978-03-07 12:09:00 UTC,2443575.006250,29.1900,-87.6367,0985,-0.14,0.28,0.3130,333.4349
1978-03-07 13:09:00 UTC,2443575.047917,29.1900,-87.6367,0985,-0.14,0.34,0.3677,337.6199
1978-03-07 14:09:00 UTC,2443575.089583,29.1900,-87.6367,0985,-0.12,0.41,0.4272,343.6862
1978-03-07 15:09:00 UTC,2443575.131250,29.1900,-87.6367,0985,-0.11,0.42,0.4342,345.3236
1978-03-07 16:09:00 UTC,2443575.172917,29.1900,-87.6367,0985,-0.08,0.41,0.4177,348.9590
1978-03-07 17:09:00 UTC,2443575.214583,29.1900,-87.6367,0985,0.05,0.50,0.5025,5.7106
1978-03-07 18:09:00 UTC,2443575.256250,29.1900,-87.6367,0985,0.10,0.23,0.2508,23.4986
1978-03-07 19:09:00 UTC,2443575.297917,29.1900,-87.6367,0985,0.13,-0.07,0.1476,118.3008
1978-03-07 20:09:00 UTC,2443575.339583,29.1900,-87.6367,0985,0.14,-0.10,0.1720,125.5377
1978-03-07 21:09:00 UTC,2443575.381250,29.1900,-87.6367,0985,0.06,-0.15,0.1616,158.1986
1978-03-07 22:09:00 UTC,2443575.422917,29.1900,-87.6367,0985,-0.01,-0.18,0.1803,183.1798
1978-03-07 23:09:00 UTC,2443575.464583,29.1900,-87.6367,0985,-0.04,-0.18,0.1844,192.5288
1978-03-08 00:09:00 UTC,2443575.506250,29.1900,-87.6367,0985,-0.15,-0.12,0.1921,231.3402
1978-03-08 01:09:00 UTC,2443575.547917,29.1900,-87.6367,0985,-0.20,-0.06,0.2088,253.3008
1978-03-08 02:09:00 UTC,2443575.589583,29.1900,-87.6367,0985,-0.20,-0.09,0.2193,245.7722
1978-03-08 03:09:00 UTC,2443575.631250,29.1900,-87.6367,0985,-0.25,0.10,0.2693,291.8014
1978-03-08 04:09:00 UTC,2443575.672917,29.1900,-87.6367,0985,-0.28,0.33,0.4328,319.6859
1978-03-08 05:09:00 UTC,2443575.714583,29.1900,-87.6367,0985,-0.24,0.48,0.5367,333.4349
1978-03-08 06:09:00 UTC,2443575.756250,29.1900,-87.6367,0985,-0.24,0.60,0.6462,338.1986
1978-03-08 07:09:00 UTC,2443575.797917,29.1900,-87.6367,0985,-0.16,0.52,0.5441,342.8973
1978-03-08 08:09:00 UTC,2443575.839583,29.1900,-87.6367,0985,-0.03,0.47,0.4710,356.3478
1978-03-08 09:09:00 UTC,2443575.881250,29.1900,-87.6367,0985,0.10,0.46,0.4707,12.2648
1978-03-08 10:09:00 UTC,2443575.922917,29.1900,-87.6367,0985,0.25,0.43,0.4974,30.1735
1978-03-08 11:09:00 UTC,2443575.964583,29.1900,-87.6367,0985,0.25,0.36,0.4383,34.7778
1978-03-08 12:09:00 UTC,2443576.006250,29.1900,-87.6367,0985,0.36,0.34,0.4952,46.6366
1978-03-08 13:09:00 UTC,2443576.047917,29.1900,-87.6367,0985,0.54,0.28,0.6083,62.5924
1978-03-08 14:09:00 UTC,2443576.089583,29.1900,-87.6367,0985,0.55,0.19,0.5819,70.9423
1978-03-08 15:09:00 UTC,2443576.131250,29.1900,-87.6367,0985,0.61,0.14,0.6259,77.0740
1978-03-08 16:09:00 UTC,2443576.172917,29.1900,-87.6367,0985,0.70,-0.13,0.7120,100.5208
1978-03-08 17:09:00 UTC,2443576.214583,29.1900,-87.6367,0985,0.72,-0.27,0.7690,110.5560
1978-03-08 18:09:00 UTC,2443576.256250,29.1900,-87.6367,0985,0.68,-0.18,0.7034,104.8265
1978-03-08 19:09:00 UTC,2443576.297917,29.1900,-87.6367,0985,0.58,-0.23,0.6239,111.6309
1978-03-08 20:09:00 UTC,2443576.339583,29.1900,-87.6367,0985,0.70,-0.16,0.7181,102.8750
1978-03-08 21:09:00 UTC,2443576.381250,29.1900,-87.6367,0985,0.90,0.01,0.9001,89.3634
1978-03-08 22:09:00 UTC,2443576.422917,29.1900,-87.6367,0985,0.97,0.17,0.9848,80.0594
1978-03-08 23:09:00 UTC,2443576.464583,29.1900,-87.6367,0985,1.03,0.22,1.0532,77.9432
1978-03-09 00:09:00 UTC,2443576.506250,29.1900,-87.6367,0985,1.15,0.14,1.1585,83.0590
1978-03-09 01:09:00 UTC,2443576.547917,29.1900,-87.6367,0985,1.20,0.16,1.2106,82.4054
1978-03-09 02:09:00 UTC,2443576.589583,29.1900,-87.6367,0985,1.13,0.16,1.1413,81.9409
1978-03-09 03:09:00 UTC,2443576.631250,29.1900,-87.6367,0985,1.03,0.30,1.0728,73.7612
1978-03-09 04:09:00 UTC,2443576.672917,29.1900,-87.6367,0985,0.98,0.52,1.1094,62.0490
1978-03-09 05:09:00 UTC,2443576.714583,29.1900,-87.6367,0985,0.95,0.74,1.2042,52.0833
1978-03-09 06:09:00 UTC,2443576.756250,29.1900,-87.6367,0985,0.98,0.85,1.2973,49.0634
1978-03-09 07:09:00 UTC,2443576.797917,29.1900,-87.6367,0985,1.02,0.88,1.3471,49.2142
1978-03-09 08:09:00 UTC,2443576.839583,29.1900,-87.6367,0985,1.24,0.90,1.5322,54.0276
1978-03-09 09:09:00 UTC,2443576.881250,29.1900,-87.6367,0985,1.29,0.68,1.4583,62.2049
1978-03-09 10:09:00 UTC,2443576.922917,29.1900,-87.6367,0985,1.16,0.39,1.2238,71.4170
1978-03-09 11:09:00 UTC,2443576.964583,29.1900,-87.6367,0985,1.17,0.40,1.2365,71.1255
1978-03-09 12:09:00 UTC,2443577.006250,29.1900,-87.6367,0985,1.18,0.50,1.2816,67.0362
1978-03-09 13:09:00 UTC,2443577.047917,29.1900,-87.6367,0985,1.27,0.47,1.3542,69.6916
1978-03-09 14:09:00 UTC,2443577.089583,29.1900,-87.6367,0985,1.26,0.43,1.3314,71.1568
1978-03-09 15:09:00 UTC,2443577.131250,29.1900,-87.6367,0985,1.08,0.35,1.1353,72.0438
1978-03-09 16:09:00 UTC,2443577.172917,29.1900,-87.6367,0985,1.02,0.20,1.0394,78.9063
1978-03-09 17:09:00 UTC,2443577.214583,29.1900,-87.6367,0985,0.86,0.08,0.8637,84.6854
1978-03-09 18:09:00 UTC,2443577.256250,29.1900,-87.6367,0985,0.75,0.04,0.7511,86.9471
1978-03-09 19:09:00 UTC,2443577.297917,29.1900,-87.6367,0985,0.78,-0.02,0.7803,91.4688
1978-03-09 20:09:00 UTC,2443577.339583,29.1900,-87.6367,0985,0.65,-0.08,0.6549,97.0165
1978-03-09 21:09:00 UTC,2443577.381250,29.1900,-87.6367,0985,0.62,-0.09,0.6265,98.2594
1978-03-09 22:09:00 UTC,2443577.422917,29.1900,-87.6367,0985,0.63,-0.06,0.6329,95.4403
1978-03-09 23:09:00 UTC,2443577.464583,29.1900,-87.6367,0985,0.49,0.01,0.4901,88.8309
1978-03-10 00:09:00 UTC,2443577.506250,29.1900,-87.6367,0985,0.47,-0.04,0.4717,94.8645
1978-03-10 01:09:00 UTC,2443577.547917,29.1900,-87.6367,0985,0.58,-0.04,0.5814,93.9452
1978-03-10 02:09:00 UTC,2443577.589583,29.1900,-87.6367,0985,0.52,0.07,0.5247,82.3332
1978-03-10 03:09:00 UTC,2443577.631250,29.1900,-87.6367,0985,0.25,0.13,0.2818,62.5256
1978-03-10 04:09:00 UTC,2443577.672917,29.1900,-87.6367,0985,0.11,0.22,0.2460,26.5651
1978-03-10 05:09:00 UTC,2443577.714583,29.1900,-87.6367,0985,0.06,0.30,0.3059,11.3099
1978-03-10 06:09:00 UTC,2443577.756250,29.1900,-87.6367,0985,-0.12,0.32,0.3418,339.4440
1978-03-10 07:09:00 UTC,2443577.797917,29.1900,-87.6367,0985,-0.06,0.43,0.4342,352.0565
1978-03-10 08:09:00 UTC,2443577.839583,29.1900,-87.6367,0985,0.09,0.48,0.4884,10.6197
1978-03-10 09:09:00 UTC,2443577.881250,29.1900,-87.6367,0985,0.07,0.42,0.4258,9.4623